Home   Weather   Washim   Past weeks

Flag for India Past Weather in Washim, Maharashtra, India — Yesterday and Last 2 Weeks

Now
73 °F

Haze.


Feels Like: 77 °F
Forecast: 53 / 80 °F
Wind: No wind

Location: Nagpur Sonegaon

Current Time: Dec 5, 2016 at 6:13:30 pm

Latest Report: Dec 5, 2016 at 5:30 pm


Visibility: 2 mi

Pressure: 29.98 "Hg (28.15 "Hg at 546m altitude)

Humidity: 53%

Dew Point: 55 °F

Location of WashimLocation

Past Weather in Washim — Graph

°F

Washim Temperature Yesterday

Maximum temperature yesterday: 86 °F (at 1:30 pm)
Minimum temperature yesterday: 55 °F (at 5:30 am)
Average temperature yesterday: 71 °F

High & Low Weather Summary for the Past Weeks

 TemperatureHumidityPressure
High90 °F (Nov 27, 1:30 pm)100% (Nov 24, 4:00 am)30.15 "Hg (Nov 24, 4:00 am)
Low54 °F (Nov 26, 4:00 am)17% (Dec 5, 12:30 pm)29.89 "Hg (Nov 21, 4:30 pm)
Average72 °F59%29.99 "Hg
* Reported Nov 20 5:00 pm — Dec 5 5:00 pm, Washim, Weather by CustomWeather, © 2016

Note: Actual official high and low records may vary slightly from our data, if they occured in-between our weather recording intervals... More about our weather records

Advertising

Washim Weather History for the Previous 24 Hours

Scroll right to see more
 ConditionsComfort  
Time TempWeatherWind HumidityBarometerVisibility
5:00 pm
Mon, Dec 5
81 °FHaze.No wind34%29.98 "Hg2 mi
4:30 pm82 °FHaze.No wind30%29.98 "Hg2 mi
4:00 pm82 °FHaze.No wind32%29.95 "Hg2 mi
3:30 pm84 °FHaze.No wind31%29.95 "Hg2 mi
3:00 pm84 °FHaze.3 mph33%29.98 "Hg2 mi
2:30 pm84 °FHaze.3 mph35%29.98 "Hg2 mi
2:00 pm84 °FHaze.2 mph33%29.98 "Hg2 mi
1:30 pm82 °FHaze.2 mph35%30.01 "Hg2 mi
12:30 pm82 °FHaze.No wind17%30.01 "Hg2 mi
12:00 pm81 °FHaze.2 mph42%30.04 "Hg2 mi
11:00 am79 °FHaze.2 mph45%30.09 "Hg2 mi
10:30 am77 °FHaze.5 mph44%30.09 "Hg1 mi
10:00 am73 °FHaze.5 mph50%30.09 "Hg1 mi
9:00 am68 °FHaze.2 mph60%30.09 "Hg1 mi
8:00 am63 °FHaze.2 mph68%30.09 "Hg1 mi
7:30 am61 °FHaze.2 mph72%30.09 "Hg1 mi
7:00 am59 °FHaze.5 mph72%30.07 "Hg1 mi
6:00 am57 °FHaze.No wind88%30.07 "Hg1 mi
5:30 am59 °FHaze.No wind88%30.07 "Hg1 mi
5:00 am61 °FHaze.No wind77%30.04 "Hg1 mi
4:30 am61 °FHaze.No wind72%30.04 "Hg1 mi
3:00 am63 °FHaze.No wind68%30.04 "Hg1 mi
2:30 am64 °FHaze.No wind68%30.04 "Hg1 mi
1:30 am66 °FHaze.No wind73%30.07 "Hg1 mi
12:30 am68 °FHaze.3 mph69%30.07 "Hg1 mi
12:00 am70 °FHaze.3 mph64%30.07 "Hg1 mi
11:00 pm
Sun, Dec 4
66 °FHaze.6 mph78%30.09 "Hg1 mi
10:30 pm68 °FHaze.3 mph73%30.09 "Hg1 mi
10:00 pm68 °FHaze.3 mph73%30.09 "Hg1 mi
9:30 pm70 °FHaze.2 mph69%30.09 "Hg1 mi
9:00 pm70 °FHaze.2 mph69%30.09 "Hg1 mi
8:30 pm72 °FHaze.No wind65%30.07 "Hg1 mi
8:00 pm73 °FHaze.No wind53%30.07 "Hg1 mi
7:30 pm75 °FHaze.No wind50%30.07 "Hg1 mi
7:00 pm75 °FHaze.No wind54%30.04 "Hg1 mi
6:30 pm79 °FHaze.No wind45%30.04 "Hg1 mi
6:00 pm81 °FHaze.No wind42%30.04 "Hg1 mi
Weather by CustomWeather, © 2016

See weather overviewHow to use our weather pages